Home   Weather   Tübingen   Past weeks

Flag for Germany Past Weather in Tübingen, Baden-Württemberg, Germany — Yesterday and Last 2 Weeks

Now
72 °F

Passing clouds.


Feels Like: 76 °F
Forecast: 50 / 75 °F
Wind: 6 mph from North

Location: Stuttgart-Echterdingen

Current Time: Sep 28, 2016 at 5:24:52 PM

Latest Report: Sep 28, 2016 at 4:50 PM


Visibility: N/A

Pressure: 30.33 "Hg

Humidity: 61%

Dew Point: 57 °F

Location of TübingenLocation

Past Weather in Tübingen — Graph

°F

Tübingen Temperature Yesterday

Maximum temperature yesterday: 66 °F (at 3:20 PM)
Minimum temperature yesterday: 54 °F (at 11:50 PM)
Average temperature yesterday: 60 °F

High & Low Weather Summary for the Past Weeks

 TemperatureHumidityPressure
High88 °F (Sep 13, 4:20 PM)100% (Sep 18, 9:20 AM)30.42 "Hg (Sep 18, 9:20 AM)
Low41 °F (Sep 22, 5:50 AM)29% (Sep 13, 4:50 PM)29.83 "Hg (Sep 15, 3:20 AM)
Average60 °F77%30.09 "Hg
* Reported Sep 13 4:20 PM — Sep 28 4:20 PM, Tübingen, Weather by CustomWeather, © 2016

Note: Actual official high and low records may vary slightly from our data, if they occured in-between our weather recording intervals... More about our weather records

Advertising

Tübingen Weather History for the Previous 24 Hours

Scroll right to see more
 ConditionsComfort  
Time TempWeatherWind HumidityBarometerVisibility
4:20 PM
Wed, Sep 28
72 °FPassing clouds.7 mph61%30.33 "HgN/A
3:50 PM72 °FPassing clouds.6 mph61%30.33 "HgN/A
3:20 PM72 °FPartly sunny.5 mph57%30.36 "HgN/A
2:50 PM72 °FPartly sunny.7 mph53%30.36 "HgN/A
2:20 PM73 °FPartly sunny.7 mph53%30.36 "HgN/A
1:50 PM70 °FPartly sunny.7 mph60%30.36 "HgN/A
1:20 PM70 °FPartly sunny.9 mph60%30.39 "HgN/A
12:50 PM70 °FPartly sunny.8 mph60%30.39 "HgN/A
12:20 PM68 °FPartly sunny.5 mph64%30.39 "HgN/A
11:50 AM66 °FPartly sunny.5 mph73%30.42 "HgN/A
11:20 AM64 °FSunny.3 mph73%30.42 "Hg10 mi
10:50 AM63 °FSunny.2 mph77%30.42 "Hg10 mi
10:20 AM59 °FSunny.2 mph88%30.42 "Hg10 mi
9:50 AM57 °FSunny.2 mph88%30.42 "Hg10 mi
9:20 AM52 °FClear.2 mph100%30.39 "Hg6 mi
8:50 AM52 °FClear.3 mph94%30.39 "Hg6 mi
8:20 AM50 °FLight fog.2 mph94%30.39 "Hg5 mi
7:50 AM48 °FLight fog.2 mph94%30.39 "Hg5 mi
7:20 AM48 °FLight fog.2 mph94%30.39 "Hg4 mi
6:50 AM48 °FLight fog.2 mph100%30.39 "Hg5 mi
6:20 AM48 °FFog.3 mph100%30.36 "Hg4 mi
5:50 AM48 °FFog.1 mph100%30.39 "Hg3 mi
5:20 AM48 °FFog.No wind100%30.39 "Hg3 mi
4:50 AM48 °FFog.1 mph100%30.39 "Hg6 mi
4:20 AM50 °FFog.1 mph94%30.39 "Hg6 mi
3:50 AM50 °FFog.1 mph94%30.36 "Hg2 mi
3:20 AM50 °FFog.2 mph100%30.36 "Hg6 mi
2:50 AM52 °FClear.1 mph94%30.39 "Hg10 mi
2:20 AM52 °FClear.1 mph94%30.39 "Hg10 mi
1:50 AM52 °FClear.2 mph100%30.39 "Hg10 mi
1:20 AM52 °FClear.1 mph100%30.39 "Hg10 mi
12:50 AM54 °FClear.1 mph94%30.39 "Hg10 mi
12:20 AM54 °FClear.2 mph94%30.39 "Hg10 mi
11:50 PM
Tue, Sep 27
54 °FClear.2 mph94%30.39 "Hg10 mi
11:20 PM55 °FClear.1 mph88%30.36 "Hg10 mi
10:50 PM55 °FClear.3 mph94%30.36 "Hg10 mi
10:20 PM55 °FClear.1 mph94%30.36 "Hg10 mi
9:50 PM55 °FClear.2 mph94%30.36 "Hg10 mi
9:20 PM57 °FClear.5 mph88%30.36 "Hg10 mi
8:50 PM59 °FClear.2 mph82%30.36 "Hg10 mi
8:20 PM61 °FClear.3 mph83%30.36 "Hg10 mi
7:50 PM61 °FClear.1 mph83%30.36 "Hg10 mi
7:20 PM63 °FClear.1 mph73%30.33 "Hg10 mi
6:50 PM64 °FPassing clouds.3 mph73%30.33 "HgN/A
6:20 PM66 °FPassing clouds.1 mph68%30.33 "HgN/A
5:50 PM66 °FPassing clouds.3 mph68%30.33 "HgN/A
5:20 PM66 °FPassing clouds.3 mph68%30.33 "HgN/A
Weather by CustomWeather, © 2016

See weather overviewHow to use our weather pages